Starlink 32268

operational
NORAD ID: 60372 Int'l Des: 2024-138 Owner: SPXS Country: US Constellation: starlink
LEOCIRCULAR

关于 Starlink 32268

正在加载描述...

实时位置

正在加载3D地球...

即将过境

高度历史

Altitude vs Time

uPlot chart will show altitude changes over time

两行轨道根数

1 60372U 24138T 25353.61506643 .00001148 00000-0 50872-4 0 9995
2 60372 53.1616 321.8379 0001172 95.1093 265.0042 15.30193150 78364
Epoch: Dec 19, 2025 • Age: 11 hours

当前状态

高度 493.3 km
速度 7.62 km/s
星下点 -50.09°S, 94.85°E
发射日期 Aug 4, 2024
运行时间 1.3 years
类型 internet

技术详情

分类 Payload
质量 730.00 kg
干质量 700.00 kg
总质量 730.00 kg
长度 0.30 m
直径 4.10 m
跨度 29.00 m
形状 Box + pan
制造商 SPXS
平台类型 Starlink V2M
阶段状态 In Orbit
所有者/国家 SPXS/US

大型星座

Loading constellations...